Location: Devore Heights
(34.2372°N, 117.4156°W)
Time: 08:48:10
(UTC+00:00)

A-11 Canister half - Pass Details

Date: 13 September 2024
Orbit: 1515 x 1684 km, 47.2° (Epoch: 07 October)

Event Time Altitude Azimuth Distance (km) Brightness Sun altitude
Rises 01:17:48 0° 210° (SSW) 4,770 12.0 7.8°
Reaches altitude 10° 01:21:03 10° 205° (SSW) 3,764 11.4 7.1°
Maximum altitude 01:30:02 49° 134° (SE) 1,917 9.4 5.3°
Drops below altitude 10° 01:38:47 10° 63° (ENE) 3,683 10.5 3.5°
Sets 01:41:55 0° 58° (ENE) 4,661 11.0 2.8°
